DateTimeUTC,F1_A11,F1_S11,BsB_S11,BsG_S11,BsR_S11,BbsB_S11,BbsG_S11,BbsR_S11,BaB_A11,BaG_A11,BaR_A11,Tu_S11,T_S11,Uu_S11,U_S11,P_S11,T1_A11
2021-04-01T19:00:00Z,00000200,20000000,,,,,,,-000.11,0000.42,-000.03,17.1,24.2,01.5,01.0,0654.7,31.0
2021-04-01T19:01:00Z,00000200,20000000,,,,,,,0000.26,-000.31,0000.43,17.1,24.2,01.5,01.0,0654.7,31.0
2021-04-01T19:02:00Z,00000200,20000000,,,,,,,-000.39,-000.11,-000.33,17.2,24.2,01.5,01.0,0654.7,31.0
2021-04-01T19:03:00Z,00000200,60000000,,,,,,,0000.26,0000.14,-000.04,17.2,24.2,01.5,01.0,0654.7,31.0
2021-04-01T19:04:00Z,00000200,41000000,0001.74,0001.59,0000.90,0000.13,0000.59,0000.48,0000.51,0000.25,0000.27,17.4,24.1,01.4,00.9,0655.6,31.0
2021-04-01T19:05:00Z,00000200,01000000,0002.17,0001.48,0000.89,0000.56,0000.43,0000.41,0000.77,0000.71,0000.23,17.4,24.1,01.4,01.0,0655.6,31.0
2021-04-01T19:06:00Z,00000200,01000000,0002.03,0001.52,0000.94,0000.67,0000.53,0000.08,0000.74,0000.50,0000.90,17.4,24.1,01.5,01.0,0655.6,31.0
2021-04-01T19:07:00Z,00000200,01000000,0001.94,0001.54,0001.16,0001.02,0000.31,0000.17,0000.73,0001.17,0000.53,17.4,24.1,01.5,01.0,0655.6,31.0
2021-04-01T19:08:00Z,00000200,01000000,0001.45,0001.72,0000.97,0000.44,0000.41,0000.20,0000.76,0000.54,0000.49,17.4,24.1,01.5,01.0,0655.6,31.0
2021-04-01T19:09:00Z,00000200,01000000,0002.05,0001.17,0001.30,0000.93,0000.20,0000.25,0001.15,0000.83,0000.69,17.4,24.1,01.6,01.1,0655.6,31.0
2021-04-01T19:10:00Z,00000200,01000000,0002.48,0001.61,0001.26,0000.49,0000.41,0000.53,-058.76,0000.40,0000.13,17.3,24.1,01.7,01.1,0655.7,31.0
2021-04-01T19:11:00Z,00000200,01000000,0002.08,0001.56,0001.27,0001.32,0000.38,0000.22,0060.15,0001.18,0001.09,17.3,24.1,01.5,01.0,0655.7,31.0
2021-04-01T19:12:00Z,00000200,01000000,0002.08,0001.49,0001.14,0000.17,0000.41,0000.36,0000.61,0000.31,0000.01,17.3,24.1,01.7,01.1,0655.6,31.0
2021-04-01T19:13:00Z,00000200,01000000,0002.45,0001.26,0001.13,0000.90,0000.26,0000.35,0000.71,0000.76,0000.63,17.3,24.1,01.6,01.1,0655.5,31.0
2021-04-01T19:14:00Z,00000200,01000000,0001.86,0001.25,0001.15,0000.83,0000.48,0000.33,-000.20,0000.18,0000.44,17.3,24.1,01.5,01.0,0655.6,31.0
2021-04-01T19:15:00Z,00000200,01000000,0002.39,0001.58,0000.88,0000.61,0000.63,0000.32,0001.12,0000.09,0000.26,17.3,24.1,01.5,01.0,0655.6,31.0
2021-04-01T19:16:00Z,00000200,01000000,0002.79,0001.61,0000.88,0000.63,0000.51,0000.25,0000.53,0000.54,0000.33,17.3,24.0,01.4,00.9,0655.7,31.0
2021-04-01T19:17:00Z,00000200,01000000,0003.05,0001.82,0000.84,0001.07,0000.19,0000.29,0000.84,0001.16,0000.45,17.2,24.0,01.4,00.9,0655.6,30.9
2021-04-01T19:18:00Z,00000200,01000000,0001.49,0001.35,0000.98,0000.42,0000.42,0000.58,0000.25,0000.44,0000.39,17.2,24.0,01.3,00.8,0655.6,30.9
2021-04-01T19:19:00Z,00000200,01000000,0002.13,0001.63,0001.09,0000.51,0000.39,0000.31,0000.66,0000.14,0000.39,17.2,24.0,01.3,00.9,0655.5,30.9
2021-04-01T19:20:00Z,00000200,01000000,0002.39,0001.52,0000.97,0000.75,0000.26,-000.02,0000.67,0000.82,0000.27,17.1,24.0,01.2,00.8,0655.5,30.9
2021-04-01T19:21:00Z,00000200,01000000,0001.96,0001.23,0000.84,0000.82,0000.35,0000.16,0000.68,0000.55,0000.50,17.1,23.9,01.3,00.9,0655.5,30.9
2021-04-01T19:22:00Z,00000200,01000000,0002.08,0001.68,0001.00,0000.37,0000.36,0000.22,0000.60,0000.09,0000.48,17.1,23.9,01.2,00.8,0655.4,30.9
2021-04-01T19:23:00Z,00000200,01000000,0002.26,0001.66,0001.01,0000.63,0000.26,0000.23,0000.79,0001.18,0000.68,17.0,23.9,01.4,00.9,0655.5,30.9
2021-04-01T19:24:00Z,00000200,01000000,0001.67,0001.22,0000.85,0000.70,0000.34,0000.33,0000.52,0000.66,0000.20,17.0,23.9,01.3,00.9,0655.5,30.9
2021-04-01T19:25:00Z,00000200,01000000,0002.28,0001.43,0000.96,0000.27,0000.51,0000.50,0000.19,-000.16,0000.20,17.0,23.8,01.4,00.9,0655.6,30.9
2021-04-01T19:26:00Z,00000200,01000000,0001.42,0001.57,0000.75,0000.36,0000.42,0000.06,0000.73,0000.99,0000.38,16.9,23.8,01.4,00.9,0655.5,30.9
2021-04-01T19:27:00Z,00000200,01000000,0001.96,0001.45,0000.95,0001.10,0000.21,0000.49,0000.90,0000.84,0001.01,16.9,23.8,01.4,00.9,0655.5,30.9
2021-04-01T19:28:00Z,00000200,01000000,0001.47,0001.47,0000.74,0000.76,0000.40,0000.24,0000.83,-000.07,0000.02,16.9,23.8,01.3,00.9,0655.5,30.9
2021-04-01T19:29:00Z,00000200,01000000,0001.72,0001.61,0000.76,0000.97,0000.37,0000.21,0000.12,0001.01,0000.31,16.9,23.8,01.4,00.9,0655.6,30.9
2021-04-01T19:30:00Z,00000200,01000000,0002.33,0001.38,0000.87,0000.35,0000.49,0000.37,0000.63,0000.06,0000.45,16.8,23.7,01.4,00.9,0655.7,30.9
2021-04-01T19:31:00Z,00000200,01000000,0001.80,0001.45,0001.01,0001.04,0000.52,-000.00,0000.80,0000.65,0000.47,16.8,23.7,01.2,00.8,0655.7,30.9
2021-04-01T19:32:00Z,00000200,01000000,0001.89,0001.43,0000.85,0000.85,0000.44,0000.39,0000.20,0000.48,0000.25,16.8,23.7,01.3,00.8,0655.7,30.9
2021-04-01T19:33:00Z,00000200,01000000,0002.37,0001.47,0000.67,0000.40,0000.54,0000.17,0000.67,0000.66,0000.34,16.8,23.7,01.3,00.9,0655.7,30.9
2021-04-01T19:34:00Z,00000200,01000000,0001.97,0001.40,0000.77,0001.13,0000.26,0000.56,0000.79,0000.69,0001.09,16.8,23.7,01.3,00.8,0655.6,30.9
2021-04-01T19:35:00Z,00000200,01000000,0002.15,0001.50,0000.83,0000.84,0000.28,0000.20,0000.77,0000.72,0000.14,16.8,23.7,01.3,00.8,0655.6,30.9
2021-04-01T19:36:00Z,00000200,01000000,0001.08,0001.62,0000.73,0000.56,0000.40,0000.08,0000.44,0000.36,0000.48,16.8,23.6,01.3,00.9,0655.6,30.9
2021-04-01T19:37:00Z,00000200,01000000,0002.55,0001.46,0000.87,0000.78,0000.40,0000.19,0001.20,0000.91,0000.62,16.7,23.6,01.3,00.9,0655.5,30.9
2021-04-01T19:38:00Z,00000200,01000000,0002.75,0001.10,0001.00,0001.03,0000.45,0000.52,0000.55,0000.80,0000.50,16.7,23.6,01.4,00.9,0655.5,30.9
2021-04-01T19:39:00Z,00000200,01000000,0002.59,0001.29,0000.88,0001.04,0000.44,0000.34,0000.85,0000.75,0000.53,16.7,23.6,01.5,01.0,0655.6,30.9
2021-04-01T19:40:00Z,00000200,01000000,0002.42,0001.53,0001.01,0000.64,0000.51,0000.33,0000.36,0000.21,0000.52,16.7,23.6,01.4,00.9,0655.4,30.9
2021-04-01T19:41:00Z,00000200,01000000,0002.40,0001.31,0001.07,0000.58,0000.47,0000.25,0000.67,0000.04,0000.37,16.7,23.5,01.5,01.0,0655.5,30.9
2021-04-01T19:42:00Z,00000200,01000000,0001.73,0001.41,0000.96,0000.71,0000.41,0000.08,0001.00,0001.18,0000.58,16.7,23.5,01.5,01.0,0655.4,30.9
2021-04-01T19:43:00Z,00000200,01000000,0002.39,0001.43,0001.16,0000.17,0000.55,0000.53,0000.45,0000.63,0000.41,16.7,23.5,01.5,01.0,0655.5,30.9
2021-04-01T19:44:00Z,00000200,01000000,0002.24,0001.69,0000.97,0000.26,0000.48,0000.33,0000.78,0000.67,0000.56,16.7,23.5,01.5,01.0,0655.4,30.9
2021-04-01T19:45:00Z,00000200,01000000,0002.32,0001.50,0000.99,0000.59,0000.50,0000.42,0001.23,0000.71,0000.77,16.6,23.5,01.6,01.0,0655.5,30.9
2021-04-01T19:46:00Z,00000200,01000000,0002.13,0001.46,0001.00,0000.96,0000.33,0000.10,0000.59,0000.89,0000.33,16.6,23.4,01.6,01.0,0655.5,30.9
2021-04-01T19:47:00Z,00000200,01000000,0002.05,0001.28,0000.74,0000.63,0000.24,0000.31,0000.97,0000.99,0000.60,16.6,23.5,01.6,01.0,0655.4,30.9
2021-04-01T19:48:00Z,00000200,01000000,0002.07,0001.37,0001.06,0000.63,0000.36,0000.06,0000.33,0000.40,0000.69,16.6,23.4,01.7,01.1,0655.5,30.9
2021-04-01T19:49:00Z,00000200,01000000,0001.52,0001.21,0000.86,0000.80,0000.46,-000.00,0000.82,0000.68,0000.39,16.6,23.4,01.6,01.1,0655.5,30.9
2021-04-01T19:50:00Z,00000200,01080000,0002.05,0001.72,0000.95,0000.43,0000.37,0000.33,0000.65,0000.36,0000.22,16.6,23.4,01.6,01.0,0655.5,30.9
2021-04-01T19:51:00Z,00000200,01000000,0001.84,0001.69,0000.97,0001.01,0000.20,0000.13,0000.40,0000.93,0000.91,16.6,23.4,01.6,01.1,0655.5,30.9
2021-04-01T19:52:00Z,00000200,01000000,0002.10,0001.29,0000.84,0000.81,0000.45,0000.35,0000.56,0000.57,0000.04,16.5,23.4,01.6,01.1,0655.5,30.9
2021-04-01T19:53:00Z,00000200,01000000,0001.69,0001.53,0000.93,0000.82,0000.42,0000.17,0000.63,0000.51,0000.32,16.5,23.4,01.7,01.1,0655.5,30.9
2021-04-01T19:54:00Z,00000200,01000000,0002.04,0001.26,0000.75,0000.86,0000.55,0000.15,0000.95,0000.17,0000.72,16.5,23.3,01.6,01.0,0655.4,30.9
2021-04-01T19:55:00Z,00000200,01000000,0002.26,0001.21,0000.68,0000.25,0000.46,0000.23,0000.47,0000.98,0000.77,16.5,23.3,01.6,01.1,0655.5,30.9
2021-04-01T19:56:00Z,00000200,01000000,0001.92,0001.27,0000.93,0000.77,0000.43,0000.17,0001.15,0001.07,0000.60,16.6,23.3,01.7,01.1,0655.5,30.9
2021-04-01T19:57:00Z,00000200,40000000,,,,,,,0000.22,0000.04,0000.20,16.6,23.3,02.0,01.3,0655.6,30.9
2021-04-01T19:58:00Z,00000200,60000000,,,,,,,0000.14,0000.19,0000.11,16.5,23.5,01.6,01.0,0654.5,30.9
2021-04-01T19:59:00Z,00000200,20000000,,,,,,,-000.03,0000.03,-000.20,16.5,23.6,01.6,01.0,0654.5,30.9
